Wetbulb
71.05 70.72 71.77 68.96 62.76 61.43 56.83 57.46 61.57 59.86 61.19 66.13 66.49 65.18 64.39 65.76 63.85 61.57 73.03 72.91 70.92 70.90 74.31 74.39 73.94 73.04 73.87 74.58 74.45 74.03 73.75 74.23 74.17 74.31 74.03 74.03 73.70 72.36 71.65 73.22 73.97 73.61 73.46 73.54 73.46 73.46 73.56 73.85 73.98
67.95 67.71 68.38 67.13 60.21 55.57 56.44 60.39 59.19 61.94 64.79 67.52 66.73 65.62 64.53 65.11 69.26 69.84 71.39 73.19 71.26 71.40 73.91 73.86 73.72 73.51 74.34 74.99 74.75 73.59 74.17 73.68 73.15 72.75 72.23 72.03 72.29 73.58 72.53 72.02 73.80 73.76 73.54 73.17 73.21 73.10 72.91 72.78 72.62
67.91 67.56 65.15 63.19 60.65 55.98 56.71 60.59 61.85 64.64 66.52 65.98 64.74 67.04 66.22 66.24 69.41 70.40 73.10 72.18 71.33 71.69 73.14 74.41 73.63 73.93 74.50 74.60 74.82 74.14 73.76 73.38 72.61 72.18 71.84 71.92 71.79 71.79 72.55 72.14 72.40 73.34 73.48 73.03 72.94 72.58 72.50 72.47 72.10
63.78 65.32 65.80 60.52 57.50 59.96 60.44 62.44 64.34 64.34 65.82 66.20 65.52 63.53 68.23 71.36 70.36 71.64 73.46 72.13 70.73 71.72 72.50 73.73 73.65 74.30 74.85 74.75 74.21 73.86 73.46 72.99 72.17 71.52 71.74 72.05 72.36 72.34 71.62 72.12 71.77 72.50 73.08 72.94 72.43 71.97 72.48 72.39 72.86
63.77 63.33 60.97 60.89 58.24 60.79 62.90 63.31 64.94 63.69 64.00 64.52 64.81 62.68 65.40 70.78 72.95 72.94 72.34 71.66 69.47 70.37 72.07 73.07 73.48 74.00 74.75 74.47 74.10 73.71 73.26 72.67 71.78 71.60 71.99 71.70 71.89 71.99 71.99 71.76 71.74 71.99 71.96 72.16 71.91 71.49 71.49 71.97 71.91
61.47 62.15 58.69 58.59 57.77 60.42 63.72 64.67 64.74 64.39 64.39 64.57 63.78 63.00 66.51 72.43 72.57 72.48 71.81 70.40 69.13 69.97 71.36 72.94 73.69 73.86 74.75 74.60 74.19 73.64 73.14 72.67 71.88 72.00 72.36 72.18 72.13 71.89 71.88 71.84 71.76 71.60 71.63 71.59 71.13 70.04 70.28 71.12 71.61
59.90 59.82 57.92 56.51 57.23 59.54 62.02 65.51 64.42 64.29 63.64 63.54 65.66 61.66 67.60 70.67 72.76 73.62 72.77 70.32 68.95 69.88 70.72 72.00 72.93 74.04 74.49 74.50 74.12 73.72 73.19 72.78 72.17 72.15 72.16 71.71 71.28 71.24 71.49 71.84 71.75 71.78 71.41 71.21 70.75 70.19 70.77 70.92 70.64
61.38 60.25 56.62 57.16 58.70 59.44 63.13 64.64 65.03 64.30 63.62 67.83 66.88 63.48 64.51 70.96 73.15 73.59 73.14 70.78 68.47 69.29 70.16 71.44 72.22 72.58 73.82 74.29 73.88 73.60 73.24 72.81 72.29 71.96 71.75 71.33 70.66 70.40 70.20 71.69 71.46 71.46 71.41 71.12 70.84 70.52 70.11 69.86 69.42
60.56 57.87 58.63 57.64 59.06 60.19 63.51 61.48 64.81 66.28 65.20 66.29 66.85 67.43 69.21 72.52 73.30 72.05 71.55 70.35 67.97 68.03 69.41 71.18 71.72 72.11 72.17 72.32 73.69 73.45 73.09 72.86 72.41 72.10 71.69 71.63 71.38 71.44 70.39 70.88 69.75 70.14 70.27 70.16 69.93 69.56 69.18 69.64 69.67
58.69 58.38 56.96 59.63 59.79 57.90 58.04 57.54 58.04 62.55 64.23 65.08 66.19 68.79 71.12 71.93 71.85 70.24 69.49 68.25 67.03 66.69 68.26 70.10 71.82 71.56 71.77 71.65 73.06 72.49 72.00 72.42 72.39 72.14 71.98 72.48 71.80 71.96 71.33 71.79 70.70 69.67 69.26 69.43 69.67 69.75 69.94 70.05 70.45
58.16 58.08 57.72 57.12 57.32 57.80 56.80 56.94 57.60 59.60 60.23 63.87 65.96 68.12 69.99 70.47 70.70 69.59 69.15 68.32 66.78 66.83 68.28 69.03 71.69 72.36 71.68 71.66 72.58 72.28 72.01 72.44 73.09 73.21 73.21 72.94 71.95 71.81 71.49 71.49 71.10 71.65 71.03 70.29 69.99 70.08 70.28 69.76 70.82
55.58 58.16 58.38 57.82 57.67 56.93 56.91 57.78 56.45 58.93 62.25 66.35 67.98 70.17 70.20 69.83 69.35 69.05 68.70 68.31 66.61 66.30 67.66 69.01 70.52 72.07 72.42 71.57 71.98 72.48 71.52 72.18 72.48 72.92 73.63 72.95 72.32 71.92 72.32 71.67 72.75 72.31 70.92 72.55 70.91 70.72 71.83 71.46 70.77
55.41 56.85 58.26 58.50 57.96 58.09 58.13 56.44 57.79 59.58 64.89 67.74 69.07 69.90 69.67 69.72 69.32 69.56 68.87 68.09 67.50 66.07 67.61 68.97 70.49 72.06 72.42 72.21 71.76 71.97 71.50 71.34 72.14 72.54 73.35 72.66 72.34 72.90 72.84 72.78 72.22 72.44 72.77 71.86 71.29 71.32 71.88 71.50 71.27
55.96 56.91 57.04 56.97 57.44 58.68 56.63 57.63 60.69 64.14 66.77 67.52 68.45 68.78 69.55 69.38 69.19 69.08 66.82 65.92 66.56 66.52 67.38 68.99 69.76 71.67 72.31 72.26 72.01 71.73 72.09 71.65 71.67 72.15 73.05 73.71 72.80 72.96 72.55 72.74 72.46 72.43 72.58 71.83 71.38 70.98 71.09 71.30 70.73
54.90 52.70 55.18 56.13 57.16 57.15 60.17 57.40 60.66 65.80 66.74 66.30 67.56 68.59 68.64 69.17 69.06 68.19 67.37 66.10 67.98 68.51 68.49 69.25 70.08 71.14 72.05 72.42 72.13 71.59 71.18 71.27 71.08 71.27 73.55 73.92 74.00 74.05 73.89 72.36 72.54 72.80 73.40 74.14 73.46 72.51 71.96 71.00 70.46
51.95 52.78 52.19 57.58 55.86 58.14 59.35 55.17 61.44 65.15 65.78 65.50 66.51 67.69 67.53 68.74 68.70 69.07 69.26 69.32 70.23 70.91 70.70 70.40 69.14 69.73 71.40 71.74 71.72 70.83 70.70 70.91 70.91 71.08 71.44 73.52 74.07 74.42 73.95 72.51 72.76 73.62 73.89 73.25 72.35 71.83 71.21 70.78 70.03
51.16 49.68 52.19 53.69 55.96 58.46 58.48 56.17 59.66 63.86 64.02 65.15 66.56 66.94 67.28 67.98 68.92 69.90 69.86 70.41 71.04 72.21 72.45 72.61 71.84 69.36 70.58 71.70 71.22 71.43 72.13 70.91 70.70 71.33 71.08 71.85 72.89 73.40 73.54 72.51 73.21 74.80 73.79 72.98 72.66 71.84 71.99 71.00 70.38
48.26 48.86 52.00 52.72 55.22 57.63 57.66 56.55 56.71 57.39 61.27 62.76 65.27 66.95 67.09 67.10 68.16 69.86 70.31 70.57 71.50 72.37 73.24 73.55 73.24 72.48 71.16 71.08 71.14 69.94 69.79 70.13 70.53 70.42 71.04 71.95 72.05 72.42 72.96 73.11 73.73 74.22 73.37 73.05 73.31 72.68 72.14 71.75 71.17
50.30 50.19 50.69 53.91 54.33 53.47 54.83 54.15 55.11 59.53 60.90 62.20 64.50 65.91 67.00 67.79 69.03 69.97 70.47 70.81 71.17 72.12 72.83 73.33 73.48 74.13 71.95 70.36 69.24 68.50 67.61 68.73 69.25 69.91 71.51 71.80 72.06 72.58 73.11 72.97 73.49 74.19 73.38 73.77 74.21 73.90 72.55 71.26 69.37
49.78 49.14 49.78 52.10 53.21 53.00 53.71 53.07 58.43 60.81 63.10 64.52 65.27 65.76 66.84 68.31 69.28 69.82 70.46 70.86 70.91 71.39 72.46 73.19 73.52 74.57 73.86 72.44 72.41 71.14 70.03 69.40 69.85 70.41 71.77 71.87 71.82 72.22 72.37 72.98 73.13 74.64 72.60 73.79 74.02 73.94 71.49 70.17 69.13
49.68 48.85 49.24 49.27 51.67 52.70 51.94 51.94 56.17 61.42 64.83 66.02 66.47 66.85 66.83 67.01 68.07 70.09 70.54 71.26 71.63 71.65 72.34 72.70 74.24 75.72 75.68 75.08 72.94 72.04 71.44 70.90 70.22 70.41 70.72 71.91 72.30 71.97 72.44 73.08 73.30 75.18 74.55 72.01 74.90 74.03 71.53 69.73 67.42
48.14 51.03 49.55 48.98 48.48 46.82 52.87 47.94 55.87 59.85 62.64 63.57 64.08 64.56 65.38 67.24 68.27 68.76 68.92 70.79 71.77 72.18 73.04 73.56 75.10 75.94 75.04 74.82 73.75 74.04 70.93 69.53 70.35 71.22 71.61 71.89 72.81 72.48 72.22 72.89 72.92 74.66 72.68 72.20 73.83 72.88 71.23 71.54 66.19
48.77 50.51 49.96 49.83 48.85 49.36 49.93 48.21 56.35 60.11 60.12 61.70 62.83 63.79 64.67 65.84 67.23 68.24 69.29 70.30 71.03 71.58 71.19 72.55 74.07 74.11 74.10 73.69 72.90 72.46 71.66 71.07 71.24 71.28 73.64 73.44 73.51 73.33 72.98 72.83 73.17 73.89 72.56 72.15 71.22 71.07 69.91 70.64 68.47
51.81 50.74 50.64 50.51 49.62 45.45 49.42 48.68 54.92 58.44 59.97 61.24 62.86 63.40 65.00 67.40 68.09 69.34 70.58 71.54 71.77 72.58 72.56 71.36 70.62 72.11 72.79 72.60 72.35 71.95 71.39 71.34 70.38 71.22 70.47 70.56 71.22 71.69 73.03 73.07 73.39 73.33 73.74 73.41 72.89 69.97 68.52 68.05 65.65
52.46 51.12 45.90 44.17 44.41 44.94 52.19 48.74 57.38 61.32 61.73 62.68 61.87 62.77 65.93 67.27 67.02 67.38 68.42 69.78 70.69 71.04 71.68 72.56 72.55 69.65 70.51 71.15 71.17 71.24 71.26 71.27 71.21 70.97 70.36 71.26 70.38 71.05 72.78 72.94 72.65 72.72 72.51 71.99 70.61 68.72 68.20 67.37 66.47
51.37 51.85 47.59 42.87 43.76 46.11 51.37 49.26 57.53 62.87 64.11 63.90 63.12 65.10 66.09 65.88 66.08 66.73 67.40 68.70 68.27 67.76 70.20 71.83 71.64 70.91 71.02 70.56 70.38 71.72 70.65 70.77 71.14 71.62 71.10 71.19 70.51 69.61 71.05 71.38 71.57 71.85 71.37 71.28 69.30 67.50 66.78 67.12 67.51
51.66 49.76 53.54 49.01 50.48 47.63 50.73 56.98 61.54 63.27 62.84 61.73 62.80 64.55 64.00 64.43 66.49 65.11 65.57 66.66 66.38 66.65 67.27 69.18 71.03 71.54 72.01 72.01 72.01 71.71 71.60 71.27 71.32 71.33 70.81 70.24 70.58 69.16 69.92 70.49 70.33 70.44 70.00 68.18 66.95 67.26 64.53 62.49 60.92
53.02 54.18 48.60 49.69 44.16 42.96 48.76 52.26 53.62 59.47 60.79 61.63 63.04 63.76 62.67 63.75 66.05 66.58 65.62 66.46 67.42 67.22 66.88 66.77 67.42 67.45 68.53 69.12 69.81 69.82 69.67 70.04 69.62 69.71 70.00 69.14 70.03 69.94 68.65 68.07 67.20 65.39 63.79 63.90 63.50 62.24 61.10 59.87 60.08
51.05 50.26 51.66 52.09 50.40 45.74 45.09 49.52 60.57 60.71 61.84 62.57 61.93 61.72 62.41 63.10 63.52 65.13 66.72 67.85 68.31 67.99 67.28 67.39 66.46 66.19 66.31 67.37 68.27 68.88 69.05 69.69 69.02 67.43 68.71 66.92 65.47 64.35 64.79 64.33 63.04 62.83 62.62 62.40 58.86 58.45 58.65 57.68 57.20
53.88 51.87 52.84 48.00 47.62 49.05 49.36 52.36 62.23 63.25 63.94 63.53 61.50 62.18 63.06 63.75 65.15 65.22 66.77 67.35 67.11 67.17 67.49 66.31 66.03 65.99 67.52 68.23 68.35 67.15 66.82 66.86 66.03 65.01 64.54 64.92 65.44 66.02 64.76 62.85 61.42 61.03 59.46 59.09 58.41 57.16 57.98 57.05 56.88
MSLP
1010.13 1009.35 1008.58 1007.33 1005.13 1003.02 1003.12 1003.67 1004.19 1003.89 1004.16 1005.28 1005.63 1006.02 1006.21 1006.97 1007.51 1008.95 1010.60 1011.14 1011.51 1012.27 1013.55 1014.75 1015.41 1015.69 1015.88 1016.02 1016.14 1016.16 1016.35 1016.38 1016.40 1016.42 1016.46 1016.57 1016.66 1016.73 1016.80 1016.82 1016.79 1016.80 1016.91 1017.06 1017.19 1017.26 1017.28 1017.21 1017.16
1009.04 1008.94 1008.04 1005.47 1002.98 1001.79 1003.11 1003.67 1003.83 1004.21 1005.12 1005.51 1006.18 1006.40 1006.64 1007.47 1008.92 1010.16 1010.78 1011.52 1011.83 1012.64 1013.65 1014.36 1015.59 1015.84 1016.03 1016.18 1016.28 1016.37 1016.50 1016.64 1016.71 1016.75 1016.82 1016.97 1016.98 1017.00 1017.04 1017.12 1017.09 1017.12 1017.21 1017.28 1017.36 1017.46 1017.48 1017.50 1017.40
1009.16 1008.59 1006.25 1003.68 1002.38 1002.11 1002.61 1003.61 1003.97 1004.91 1005.54 1005.73 1006.16 1006.77 1007.22 1008.41 1009.69 1010.07 1010.71 1011.63 1012.11 1013.00 1013.66 1014.62 1015.70 1015.98 1016.19 1016.37 1016.44 1016.61 1016.71 1016.81 1016.91 1017.00 1017.13 1017.24 1017.26 1017.33 1017.38 1017.38 1017.35 1017.31 1017.36 1017.51 1017.54 1017.63 1017.63 1017.55 1017.43
1008.28 1007.11 1005.56 1003.11 1002.15 1002.96 1003.34 1003.93 1004.34 1004.81 1005.66 1006.00 1006.23 1006.89 1008.66 1009.86 1010.02 1010.39 1011.49 1011.86 1012.43 1013.12 1013.66 1015.36 1015.82 1016.16 1016.35 1016.50 1016.68 1016.79 1016.86 1016.94 1017.04 1017.14 1017.28 1017.42 1017.48 1017.54 1017.57 1017.64 1017.70 1017.72 1017.75 1017.78 1017.82 1017.86 1017.86 1017.84 1017.68
1007.76 1005.69 1003.44 1002.61 1002.57 1003.00 1003.60 1004.35 1004.38 1004.84 1005.63 1006.03 1006.55 1007.20 1008.69 1010.31 1010.69 1011.18 1011.56 1012.00 1012.33 1012.98 1013.71 1015.14 1016.06 1016.36 1016.50 1016.63 1016.83 1016.95 1017.01 1017.08 1017.19 1017.31 1017.43 1017.56 1017.62 1017.73 1017.73 1017.81 1017.86 1017.93 1018.05 1018.08 1018.06 1018.06 1018.07 1018.06 1017.98
1005.98 1004.97 1002.82 1002.52 1002.68 1003.29 1003.55 1004.13 1004.31 1004.59 1005.43 1006.38 1006.70 1007.18 1008.84 1010.50 1010.85 1011.23 1011.47 1011.72 1012.25 1012.93 1013.68 1014.96 1016.22 1016.62 1016.74 1016.85 1017.00 1017.10 1017.21 1017.28 1017.38 1017.56 1017.62 1017.75 1017.80 1017.92 1017.93 1018.01 1018.00 1017.99 1018.08 1018.20 1018.25 1018.27 1018.30 1018.27 1018.20
1005.57 1003.99 1002.92 1002.95 1002.94 1002.98 1003.78 1004.30 1003.99 1004.47 1005.24 1005.85 1006.61 1006.82 1008.85 1009.95 1010.58 1011.14 1011.48 1011.78 1012.37 1012.92 1013.47 1014.50 1015.42 1016.38 1016.90 1017.07 1017.18 1017.25 1017.38 1017.46 1017.60 1017.76 1017.83 1017.96 1017.98 1017.99 1018.03 1018.08 1018.16 1018.22 1018.22 1018.25 1018.31 1018.34 1018.36 1018.32 1018.31
1005.80 1004.30 1003.11 1003.09 1002.74 1003.09 1003.99 1004.05 1004.38 1004.56 1004.98 1006.01 1006.25 1006.30 1007.86 1009.36 1010.56 1011.22 1011.60 1011.98 1012.48 1013.01 1013.38 1013.73 1014.51 1015.48 1016.02 1016.58 1017.26 1017.35 1017.50 1017.63 1017.77 1017.91 1017.96 1018.06 1018.10 1018.11 1018.16 1018.19 1018.30 1018.37 1018.38 1018.38 1018.43 1018.47 1018.48 1018.45 1018.39
1006.18 1004.03 1002.73 1002.93 1002.81 1003.26 1003.73 1003.39 1004.20 1004.64 1004.96 1005.90 1006.43 1006.63 1007.40 1009.30 1010.39 1010.97 1011.45 1011.89 1012.26 1012.89 1013.27 1013.50 1013.97 1014.63 1014.85 1015.22 1016.65 1017.41 1017.56 1017.75 1017.86 1017.82 1017.90 1017.88 1016.86 1017.37 1017.70 1018.14 1018.35 1018.40 1018.42 1018.43 1018.45 1018.44 1018.42 1018.42 1018.28
1005.42 1003.71 1003.18 1003.49 1003.52 1003.25 1003.30 1003.40 1003.50 1004.26 1004.42 1005.30 1006.79 1007.76 1008.22 1009.37 1010.05 1010.47 1010.92 1011.33 1011.90 1012.63 1013.16 1013.56 1014.07 1014.15 1014.51 1015.00 1015.87 1016.32 1016.60 1016.84 1016.98 1016.99 1017.41 1016.72 1017.03 1017.03 1016.97 1017.90 1018.46 1018.48 1018.42 1018.41 1018.38 1018.37 1018.35 1018.09 1016.54
1005.04 1003.60 1003.71 1003.82 1003.92 1003.76 1003.35 1002.99 1003.35 1003.48 1003.16 1003.86 1005.30 1007.28 1008.36 1009.16 1009.71 1010.14 1010.63 1011.00 1011.57 1012.40 1013.08 1013.57 1014.19 1014.52 1014.45 1014.91 1015.48 1015.63 1015.88 1016.16 1016.57 1016.80 1016.93 1016.71 1017.00 1017.40 1017.23 1017.25 1017.76 1017.92 1018.39 1017.59 1017.91 1017.90 1017.33 1016.73 1016.40
1004.87 1004.36 1004.10 1003.79 1003.90 1003.77 1003.24 1003.19 1003.00 1003.26 1003.38 1004.22 1004.96 1006.55 1007.84 1008.66 1009.16 1009.69 1010.26 1010.76 1011.38 1012.20 1013.01 1013.65 1013.93 1014.72 1014.94 1014.80 1015.31 1015.28 1015.57 1015.92 1016.04 1016.37 1016.81 1016.65 1016.85 1016.91 1016.79 1016.51 1016.62 1017.20 1017.01 1017.08 1017.23 1016.81 1016.94 1017.06 1016.88
1004.96 1004.20 1004.11 1004.11 1003.90 1003.48 1003.34 1003.05 1002.94 1002.96 1003.70 1004.69 1005.46 1006.54 1007.50 1008.27 1008.93 1009.45 1009.90 1010.70 1011.32 1011.99 1012.81 1013.63 1014.22 1014.83 1015.08 1015.23 1015.14 1015.29 1015.40 1015.80 1015.79 1016.03 1016.46 1016.37 1016.38 1016.59 1016.71 1016.70 1016.69 1016.55 1016.43 1016.53 1016.73 1016.68 1016.88 1016.70 1016.66
1004.47 1004.33 1004.01 1003.84 1003.50 1003.07 1003.05 1002.49 1003.12 1003.31 1004.06 1004.78 1005.73 1006.39 1007.24 1007.97 1008.62 1009.18 1009.68 1010.22 1011.11 1011.73 1012.62 1013.47 1014.12 1014.82 1015.11 1015.32 1015.35 1015.43 1015.59 1015.54 1015.86 1015.80 1015.99 1016.62 1016.50 1016.54 1016.40 1016.56 1016.41 1016.23 1016.20 1016.13 1016.03 1015.83 1015.88 1015.94 1015.80
1004.99 1004.60 1003.88 1003.49 1003.20 1002.89 1003.07 1002.16 1002.33 1003.43 1004.06 1004.59 1005.36 1006.20 1006.98 1007.72 1008.27 1008.75 1009.44 1010.09 1010.96 1011.58 1012.21 1013.35 1013.93 1014.35 1015.09 1015.20 1015.35 1015.38 1015.34 1015.48 1015.54 1015.62 1016.02 1016.35 1016.47 1016.47 1016.56 1015.95 1015.85 1015.61 1015.62 1016.18 1016.31 1016.14 1015.88 1015.83 1015.46
1004.81 1004.22 1002.91 1002.27 1002.93 1002.76 1003.18 1001.05 1002.16 1003.42 1003.84 1004.20 1004.99 1005.84 1006.64 1007.39 1007.92 1008.57 1009.31 1010.14 1010.69 1011.28 1012.01 1013.02 1013.42 1013.80 1014.63 1015.00 1015.13 1015.19 1015.11 1015.20 1015.11 1015.20 1015.30 1015.74 1015.88 1015.96 1015.75 1015.52 1015.34 1015.25 1015.47 1015.63 1015.44 1015.49 1015.38 1015.26 1015.18
1004.24 1002.78 1002.31 1002.06 1002.76 1002.39 1002.57 1001.11 1002.36 1003.33 1003.69 1003.76 1004.82 1005.78 1006.46 1007.12 1007.87 1008.49 1009.18 1009.84 1010.41 1011.15 1011.69 1012.47 1013.08 1013.29 1014.01 1014.78 1014.99 1015.16 1015.10 1015.24 1014.81 1014.71 1014.66 1014.75 1014.96 1015.12 1015.33 1014.90 1014.74 1015.09 1015.10 1015.21 1014.98 1014.97 1015.14 1015.09 1015.17
1002.89 1002.86 1002.03 1001.92 1002.49 1002.59 1002.14 1001.83 1002.13 1002.80 1003.61 1003.98 1004.35 1005.42 1006.25 1006.99 1007.75 1008.39 1009.05 1009.44 1010.07 1010.75 1011.59 1012.14 1012.78 1013.37 1013.71 1014.21 1014.54 1014.28 1014.32 1014.35 1014.23 1014.04 1013.90 1014.12 1014.34 1014.46 1014.53 1014.34 1014.25 1014.37 1014.50 1014.59 1014.42 1014.62 1014.58 1014.76 1015.07
1003.42 1002.86 1002.21 1002.05 1003.02 1002.92 1002.33 1002.37 1002.63 1003.34 1003.82 1004.31 1004.65 1005.00 1005.70 1006.28 1007.01 1007.90 1008.42 1008.98 1009.56 1010.19 1010.96 1011.64 1012.25 1012.71 1013.25 1013.41 1013.31 1013.33 1013.06 1013.19 1013.31 1013.14 1013.14 1013.37 1013.68 1013.81 1014.14 1014.12 1014.03 1014.28 1014.15 1014.03 1013.93 1014.48 1014.84 1015.42 1016.14
1004.10 1003.42 1002.82 1002.77 1003.39 1003.62 1002.83 1002.94 1003.67 1004.46 1004.92 1005.48 1005.76 1005.74 1005.81 1005.96 1006.50 1007.25 1007.83 1008.24 1008.70 1009.28 1009.96 1010.60 1011.10 1011.61 1012.04 1012.10 1012.24 1012.12 1012.17 1012.23 1012.30 1012.32 1012.53 1012.95 1013.18 1013.37 1013.40 1013.67 1013.62 1013.63 1013.63 1013.93 1014.30 1014.62 1014.69 1015.31 1015.85
1003.84 1003.27 1002.94 1003.07 1003.44 1003.62 1003.53 1003.15 1003.92 1005.10 1005.50 1006.07 1006.64 1006.98 1006.89 1006.73 1006.50 1006.55 1007.16 1007.62 1008.09 1008.51 1008.96 1009.44 1009.81 1010.20 1010.62 1011.05 1011.45 1011.84 1012.08 1011.87 1011.58 1011.53 1011.76 1012.04 1012.55 1012.79 1013.00 1013.13 1013.29 1013.22 1013.37 1013.28 1013.96 1014.81 1015.19 1014.97 1015.60
1003.24 1003.58 1003.65 1003.49 1003.37 1002.43 1003.00 1002.32 1003.38 1004.83 1005.43 1006.49 1007.07 1007.54 1007.59 1007.50 1006.94 1006.77 1006.72 1007.02 1007.42 1007.87 1008.28 1008.75 1009.15 1009.71 1010.14 1010.67 1010.69 1010.77 1010.64 1010.42 1010.46 1010.90 1011.05 1011.35 1011.68 1012.17 1012.31 1012.37 1012.64 1012.99 1013.22 1013.29 1013.55 1014.05 1014.63 1015.22 1015.08
1003.43 1003.85 1003.66 1003.33 1003.00 1002.52 1002.65 1002.91 1002.86 1004.42 1005.56 1006.85 1007.63 1008.03 1008.23 1008.31 1008.20 1007.99 1008.03 1008.29 1008.22 1008.36 1008.17 1007.97 1008.46 1009.16 1009.64 1009.86 1010.39 1010.21 1010.57 1010.17 1010.24 1010.51 1010.95 1011.33 1011.61 1011.70 1011.98 1011.95 1012.23 1012.63 1013.01 1013.20 1013.54 1014.04 1014.56 1014.88 1014.80
1003.65 1003.88 1003.68 1003.48 1002.76 1002.41 1002.08 1002.59 1003.03 1004.71 1006.64 1007.40 1007.94 1008.43 1008.80 1008.85 1009.26 1008.99 1008.92 1009.01 1009.00 1008.90 1008.58 1008.33 1008.34 1008.80 1009.22 1009.55 1009.94 1010.36 1010.33 1010.46 1010.40 1010.32 1010.95 1011.05 1011.11 1011.35 1011.69 1011.86 1012.20 1012.75 1012.97 1013.22 1013.42 1013.50 1013.92 1014.08 1014.37
1003.66 1003.01 1002.37 1002.33 1001.88 1001.25 1002.29 1003.10 1004.66 1006.21 1007.31 1007.93 1008.39 1008.96 1009.44 1009.93 1010.32 1010.21 1009.81 1009.73 1009.93 1010.03 1009.65 1008.79 1008.64 1008.81 1009.12 1009.45 1009.69 1010.02 1010.42 1010.80 1010.96 1011.03 1010.86 1011.03 1010.94 1010.94 1011.61 1012.20 1012.35 1012.52 1012.87 1013.20 1013.57 1013.66 1013.51 1013.37 1013.69
1002.47 1002.08 1000.29 1000.35 1000.38 1000.73 1002.81 1002.63 1004.77 1006.75 1007.72 1008.40 1009.00 1009.59 1010.34 1010.90 1011.02 1010.93 1010.91 1011.07 1011.25 1011.26 1010.76 1009.57 1009.41 1009.62 1009.60 1009.62 1009.89 1010.27 1010.65 1010.57 1010.81 1011.05 1011.25 1011.18 1011.64 1012.37 1012.79 1012.64 1012.66 1012.55 1012.85 1013.26 1013.73 1013.91 1013.55 1013.47 1013.53
1001.42 1001.39 1000.93 1000.59 1000.66 1000.41 1001.80 1004.25 1005.96 1006.91 1007.60 1008.69 1009.52 1010.27 1011.39 1011.60 1011.34 1011.87 1012.07 1011.84 1012.09 1012.14 1011.93 1011.32 1010.68 1010.65 1010.60 1010.58 1010.61 1010.90 1011.11 1011.22 1011.58 1012.25 1012.28 1012.25 1012.63 1012.69 1012.80 1012.83 1012.89 1012.98 1013.20 1013.77 1013.96 1013.97 1013.95 1014.14 1014.07
1001.45 1000.97 1001.08 1000.54 1000.00 1000.47 1001.97 1003.33 1003.15 1006.05 1007.27 1008.59 1009.68 1011.06 1012.14 1012.40 1012.00 1012.27 1012.62 1012.39 1012.61 1012.76 1012.77 1012.64 1012.48 1012.40 1012.16 1012.17 1011.92 1012.00 1012.24 1012.28 1012.80 1013.08 1012.79 1012.84 1012.97 1013.08 1013.42 1013.77 1013.91 1014.07 1014.25 1014.56 1014.74 1014.68 1014.91 1015.07 1015.29
1001.20 1000.56 1000.44 1000.11 1000.40 999.94 1001.24 1002.36 1003.75 1005.83 1007.30 1008.79 1010.98 1012.10 1012.47 1012.86 1013.08 1012.91 1012.58 1012.21 1012.14 1012.71 1013.05 1013.34 1013.44 1013.42 1013.30 1013.08 1013.06 1012.99 1012.99 1013.08 1013.48 1013.56 1013.44 1013.74 1014.04 1014.34 1014.51 1014.68 1014.86 1015.00 1015.17 1015.24 1014.97 1015.42 1015.82 1015.82 1016.00
999.86 999.65 1000.06 999.85 1000.65 1000.71 1001.21 1002.95 1004.86 1006.79 1008.31 1010.00 1011.52 1012.44 1012.92 1013.09 1012.93 1012.92 1012.73 1012.55 1012.50 1012.99 1013.32 1013.91 1014.06 1014.07 1013.77 1013.58 1013.66 1013.83 1013.98 1014.11 1014.29 1014.44 1014.53 1014.57 1014.60 1014.85 1015.27 1015.51 1015.62 1015.76 1016.09 1016.12 1016.09 1016.05 1016.53 1016.56 1016.25
Wind_Speed
9 9 5 7 8 4 8 10 5 5 5 4 5 2 7 8 11 7 10 6 17 16 17 16 13 13 12 11 11 10 10 9 10 9 9 9 8 7 7 7 7 8 8 8 7 6 6 7 6
6 5 6 6 7 8 9 6 6 8 4 5 6 3 0 8 10 11 13 12 17 15 15 15 14 13 12 11 11 11 11 10 10 9 9 9 7 7 7 6 7 6 9 8 7 6 5 4 3
8 7 7 6 4 11 10 7 5 8 7 5 4 3 3 6 5 13 16 18 17 14 13 15 14 13 13 11 11 11 10 10 9 9 9 9 7 8 6 6 5 6 9 8 7 6 5 4 2
5 7 6 9 11 11 8 6 5 6 5 1 2 6 6 6 8 9 18 18 16 14 13 17 14 12 12 11 11 10 10 9 9 9 8 9 7 8 7 6 5 6 7 7 6 4 3 4 5
7 5 6 2 6 7 6 2 3 3 2 4 1 6 5 7 9 16 18 16 16 15 13 15 13 12 12 12 12 11 10 9 9 9 8 9 8 8 7 7 6 6 5 5 4 4 2 4 5
7 5 8 1 4 5 6 0 3 2 3 5 2 5 8 9 13 15 17 16 15 14 13 15 13 12 11 12 12 11 10 9 9 9 9 10 9 8 8 7 7 7 6 4 3 2 2 3 4
11 7 5 3 6 3 6 2 3 4 2 3 4 4 9 11 14 14 14 14 14 14 12 14 15 13 12 11 11 11 9 9 8 8 8 9 8 8 8 7 7 6 5 5 4 2 2 2 3
6 7 4 1 4 12 5 2 2 4 3 5 4 4 10 15 16 13 14 13 13 13 11 13 14 14 14 13 11 10 9 8 8 8 8 8 8 7 7 7 7 6 6 5 4 2 2 1 0
4 7 1 4 2 7 5 2 3 4 4 6 6 2 11 21 19 15 14 14 13 12 12 11 12 13 13 13 12 10 8 8 8 9 9 10 7 9 11 11 7 6 6 5 4 3 2 3 5
9 8 3 4 5 5 3 6 5 5 7 7 7 6 15 21 19 18 17 15 16 15 14 11 11 11 10 7 12 10 10 10 9 9 9 8 4 3 5 8 6 6 6 6 5 5 5 8 5
5 7 4 4 2 8 8 10 5 8 5 4 9 13 17 19 18 17 16 16 16 15 12 13 12 9 10 9 7 6 6 6 6 7 7 4 5 5 6 6 7 7 8 7 9 8 8 3 5
9 6 5 1 4 7 11 13 10 7 3 7 5 15 18 19 18 17 16 15 16 16 15 13 12 11 10 7 7 6 6 6 6 8 8 5 5 5 3 4 2 4 6 1 4 4 3 5 6
12 6 8 8 9 11 12 12 8 4 3 6 11 14 16 15 15 14 14 14 15 16 15 14 12 11 10 9 6 6 6 7 7 7 9 6 6 3 4 3 5 3 3 6 5 6 5 7 8
5 12 10 7 10 11 11 11 3 4 5 9 11 12 13 15 15 14 13 15 15 14 15 14 14 12 11 10 8 7 6 6 7 7 7 9 7 5 5 6 6 6 5 6 5 7 6 7 7
8 10 12 12 10 8 7 11 7 7 7 9 10 11 12 14 15 14 14 14 14 12 13 14 13 13 13 12 10 8 7 8 7 8 9 9 9 8 8 7 7 7 6 6 8 8 8 8 7
12 11 13 12 7 6 6 3 13 6 7 8 10 10 12 15 15 14 14 13 12 11 12 13 13 14 14 11 9 8 8 8 8 8 9 13 13 12 10 9 8 8 6 7 8 7 7 7 7
10 13 18 11 7 4 10 6 9 4 3 7 8 8 10 13 14 13 14 14 13 12 11 13 14 15 14 12 10 9 9 9 9 9 10 13 15 15 12 10 9 9 7 9 8 8 8 8 7
13 15 8 11 8 11 13 9 2 4 4 4 3 8 7 8 12 12 13 14 14 13 12 12 11 12 12 10 10 10 10 11 11 11 11 14 13 15 13 12 12 11 9 10 10 9 8 7 4
6 10 11 11 7 5 6 4 5 7 6 5 4 4 6 8 9 11 13 14 14 14 14 14 13 13 11 11 11 11 13 11 12 13 16 15 14 15 14 12 12 11 12 11 10 8 10 5 3
12 13 14 6 5 8 6 8 5 8 10 11 10 7 4 7 10 10 13 15 16 16 16 16 17 16 15 13 11 11 11 11 11 12 13 16 16 16 14 14 13 12 11 12 12 11 8 6 6
13 14 13 10 7 8 7 12 9 8 10 9 11 8 5 5 7 10 13 13 14 16 18 18 18 18 17 17 11 10 10 9 10 13 12 14 16 16 16 15 13 12 10 11 9 9 12 7 5
14 11 9 11 11 11 12 11 12 8 9 11 11 11 10 8 5 8 8 10 12 13 14 16 16 16 15 16 13 15 13 14 13 11 10 9 13 15 16 16 15 12 8 6 4 9 11 11 7
10 2 11 13 13 14 12 10 11 9 7 11 11 12 11 10 9 9 8 8 7 7 9 10 11 13 14 14 16 12 15 12 10 9 9 9 9 10 13 14 13 10 6 5 6 6 8 8 6
6 7 6 8 11 11 16 12 9 5 5 8 10 12 12 13 13 12 11 9 8 8 7 5 5 9 10 12 13 14 14 11 10 7 7 8 7 7 9 10 8 7 8 9 9 8 9 9 9
12 12 9 10 9 5 7 9 13 10 8 8 10 11 12 14 14 13 14 14 13 15 12 8 6 1 3 6 8 8 10 9 9 8 7 6 6 5 5 4 5 4 5 6 5 6 9 10 9
18 16 9 11 12 10 7 7 10 9 7 8 10 11 13 13 12 14 15 15 14 15 14 14 13 11 8 6 4 0 2 3 4 2 5 4 6 5 6 5 6 7 3 2 3 4 5 6 3
15 14 13 4 1 7 9 8 7 8 9 9 10 13 13 12 12 15 14 14 14 14 15 16 16 15 14 11 8 7 5 5 8 7 4 4 5 5 5 5 5 6 5 4 3 6 9 9 7
9 16 11 10 9 11 7 13 11 14 11 11 10 13 10 10 11 13 11 11 12 12 13 14 14 14 13 12 10 9 9 9 7 5 6 6 6 8 11 11 12 12 11 11 10 9 11 9 8
10 11 10 6 5 8 8 9 14 12 11 12 10 8 9 10 10 9 10 10 13 12 12 11 11 11 10 9 8 8 8 8 7 6 7 11 12 11 11 11 11 11 13 12 12 11 9 10 9
18 15 15 9 11 7 8 9 11 12 12 11 10 8 8 8 8 8 9 10 11 12 11 11 10 10 9 8 9 9 9 9 10 11 10 9 13 13 13 13 11 13 12 9 9 10 8 7 8
Wind_Direction
177 208 260 244 225 212 69 60 347 20 72 69 107 290 19 28 7 34 140 138 131 138 139 157 154 157 159 146 141 136 133 126 113 117 109 108 107 117 119 114 116 123 112 108 100 100 104 104 112
192 224 234 278 267 79 78 33 12 34 82 128 128 150 31 72 57 117 137 153 145 137 146 147 154 158 158 153 145 135 136 128 123 116 108 99 98 91 119 109 107 129 124 113 102 92 86 87 84
218 252 268 290 310 51 58 25 58 97 126 150 113 342 10 61 76 137 114 145 137 144 148 129 156 158 154 147 136 138 136 128 120 113 109 105 101 94 93 110 115 102 121 113 104 97 106 98 53
232 204 220 266 56 71 31 34 105 123 99 80 23 88 105 36 141 127 143 143 140 147 157 132 153 158 154 159 145 145 139 132 122 113 112 107 103 98 105 105 115 104 106 107 92 78 81 58 42
230 250 249 211 78 62 55 17 214 79 102 102 261 89 75 91 110 134 145 149 149 150 143 148 155 162 159 153 153 154 148 140 130 123 119 112 107 102 102 115 119 112 107 105 92 84 50 43 38
241 273 242 59 78 43 78 110 167 276 78 102 127 109 87 113 140 147 148 152 152 150 153 138 156 170 168 159 160 158 156 148 138 134 129 117 112 109 109 110 119 124 126 122 99 43 38 39 31
274 261 45 18 28 152 38 9 256 26 111 121 146 84 106 150 139 147 155 151 157 155 162 157 163 171 174 166 166 163 162 154 147 147 136 128 127 120 118 120 120 123 134 143 154 151 86 62 33
278 272 209 85 85 75 86 137 340 251 72 126 219 140 155 148 152 150 159 156 162 162 169 165 164 170 177 166 171 167 168 163 162 157 147 143 137 135 137 147 126 130 134 135 147 163 163 186 227
270 248 198 103 130 100 122 313 92 17 149 210 170 78 123 144 153 157 163 167 169 173 175 178 172 172 190 164 156 173 178 177 177 172 169 183 167 170 178 83 131 143 146 153 163 179 199 247 220
246 263 96 50 74 28 339 310 343 239 181 180 150 111 134 153 163 168 174 174 177 180 180 186 183 180 182 168 155 184 173 185 191 189 173 219 132 130 38 115 155 160 168 175 188 205 223 236 216
188 260 125 167 318 320 313 298 348 264 259 208 188 162 155 166 171 177 183 184 183 183 183 194 176 198 185 184 175 182 179 187 190 198 200 188 168 166 206 155 170 170 196 193 196 186 221 224 297
232 240 234 226 303 292 309 326 306 277 15 18 121 157 162 174 178 183 187 189 183 187 189 194 187 192 214 190 194 186 195 192 203 198 202 201 209 176 227 221 156 213 183 157 240 219 282 262 261
235 222 246 252 283 288 308 290 300 282 104 117 129 155 166 178 182 189 188 190 190 189 192 199 200 202 197 216 196 209 206 199 211 201 200 226 223 212 226 232 255 266 235 204 220 236 236 242 242
181 244 252 264 272 281 284 305 269 96 150 138 151 160 168 179 185 184 193 188 193 194 193 201 201 197 210 212 219 206 216 209 222 218 213 215 232 212 235 224 235 238 245 258 259 249 240 236 252
233 243 221 233 254 278 301 260 214 119 171 163 171 167 169 180 184 193 191 192 189 194 189 200 205 200 208 212 211 221 216 217 220 224 219 222 223 217 251 234 235 235 238 250 246 254 248 254 259
226 229 237 213 217 218 247 164 88 124 187 198 190 171 174 182 190 191 191 197 194 207 192 194 205 202 205 215 215 226 226 233 228 228 223 215 223 226 220 232 234 236 230 241 244 242 250 256 253
207 235 212 171 200 210 230 280 99 88 248 240 192 191 194 182 193 193 199 198 205 201 209 201 207 213 203 209 220 225 232 232 239 232 228 221 222 224 230 238 237 235 237 245 244 238 242 259 254
210 220 215 229 169 218 203 254 327 31 313 300 246 201 207 200 199 200 207 205 203 211 211 222 213 220 207 212 212 222 222 225 230 233 233 229 229 226 224 232 238 233 230 240 238 238 251 243 301
277 247 246 202 120 253 217 252 14 10 8 350 307 270 215 207 188 199 209 214 211 207 211 216 216 214 211 208 215 217 224 224 229 229 230 231 228 230 228 242 240 237 245 242 237 236 228 228 193
225 229 226 205 207 262 183 246 80 35 44 33 15 348 271 224 185 197 205 213 216 219 219 218 218 212 208 211 217 228 227 233 234 234 233 229 235 234 233 235 246 244 249 235 246 232 222 220 192
219 232 231 242 161 226 258 233 182 99 71 46 33 11 5 320 275 221 212 215 219 222 222 221 222 217 214 220 215 217 240 234 237 235 236 229 234 239 236 243 242 253 240 254 220 235 231 223 181
225 210 249 237 229 237 192 250 163 147 89 50 34 25 19 15 332 229 235 229 223 231 231 234 234 229 225 219 228 220 226 232 235 244 251 244 234 238 240 239 242 247 260 237 221 216 228 254 207
245 165 236 229 227 247 203 242 127 159 74 44 33 31 32 35 40 39 25 14 1 324 298 267 233 240 235 229 230 229 233 253 249 253 261 275 280 259 254 247 246 246 235 247 232 214 219 237 241
187 192 186 216 222 219 232 227 99 95 56 53 45 41 38 47 47 44 47 44 29 14 356 344 266 239 237 233 229 238 255 254 274 261 272 258 265 269 244 265 258 255 247 246 246 218 207 210 217
201 189 183 200 197 241 145 209 69 100 76 48 50 55 52 46 44 42 37 42 36 25 14 12 39 25 225 232 235 235 243 256 262 257 259 302 283 284 6 292 265 279 264 274 252 232 230 211 227
202 205 238 211 204 157 161 195 112 101 89 70 73 72 57 51 45 44 43 38 33 31 23 37 49 50 49 54 48 327 215 227 237 203 318 344 27 41 356 343 331 304 259 301 287 277 273 246 309
181 222 250 276 6 215 134 80 132 155 112 93 86 75 58 44 52 47 32 40 36 34 33 33 40 48 46 51 59 62 68 55 55 61 60 62 30 25 21 13 20 33 59 61 303 21 35 55 69
248 204 201 230 174 218 168 173 141 171 137 122 103 77 71 67 46 52 46 50 56 48 46 43 45 46 51 46 39 55 67 72 73 53 56 44 41 35 50 50 53 57 64 69 66 64 59 61 56
185 208 233 260 302 231 167 201 116 137 138 122 93 86 75 72 61 51 47 53 62 64 57 53 51 49 48 52 48 55 48 56 62 62 57 66 73 73 78 75 72 71 73 75 71 63 63 63 57
206 211 200 220 176 252 318 102 135 135 126 112 113 98 86 76 72 71 57 60 58 58 43 51 51 48 45 53 59 61 60 63 68 72 70 92 89 81 79 81 80 80 71 62 73 78 79 86 91